NWS336 URSS-UTAA

Flight info

Callsign NWS336
Flight time 2h 7m
Altitude 39000
Route BINOL G487 GUBOR A944 RESLO B491 BISNA/N0480F390 M23 MARAL B450 MAMED MAM11A
Aircraft B772/H-SDE2E3FGHIJ5LORVWXY/LB1D1

Departure

Time 2026-05-04 12:19
Airport Sochi International Airport (URSS)

Arrival

Time 2026-05-04 14:26
Airport Ashgabat International Airport (UTAA)
Time Latitude Longitude Altitude Speed Heading
2026-05-04 12:04 43.44895 39.94518 79 ft 0 kts 298°
2026-05-04 12:07 43.44892 39.94526 82 ft 4 kts 299°
2026-05-04 12:08 43.44878 39.94557 84 ft 4 kts 308°
2026-05-04 12:08 43.44860 39.94585 79 ft 4 kts 316°
2026-05-04 12:08 43.44840 39.94610 88 ft 4 kts 315°
2026-05-04 12:08 43.44825 39.94631 79 ft 4 kts 327°
2026-05-04 12:09 43.44802 39.94640 89 ft 4 kts
2026-05-04 12:09 43.44777 39.94633 85 ft 4 kts 26°
2026-05-04 12:09 43.44760 39.94610 85 ft 4 kts 70°
2026-05-04 12:09 43.44753 39.94581 79 ft 0 kts 65°
2026-05-04 12:14 43.44801 39.94725 84 ft 10 kts 64°
2026-05-04 12:15 43.44832 39.94813 83 ft 10 kts 65°
2026-05-04 12:15 43.44862 39.94901 81 ft 10 kts 65°
2026-05-04 12:15 43.44892 39.94989 88 ft 10 kts 65°
2026-05-04 12:15 43.44922 39.95077 90 ft 10 kts 63°
2026-05-04 12:16 43.44954 39.95163 91 ft 10 kts 64°
2026-05-04 12:16 43.44985 39.95251 90 ft 10 kts 64°
2026-05-04 12:16 43.45015 39.95339 94 ft 10 kts 64°
2026-05-04 12:16 43.45042 39.95417 94 ft 9 kts 64°
2026-05-04 12:17 43.45045 39.95496 96 ft 9 kts 114°
2026-05-04 12:17 43.44998 39.95540 95 ft 9 kts 175°
2026-05-04 12:17 43.44949 39.95498 97 ft 9 kts 236°
2026-05-04 12:17 43.44938 39.95473 94 ft 0 kts 241°
2026-05-04 12:18 43.44935 39.95465 96 ft 10 kts 241°
2026-05-04 12:18 43.44730 39.94896 83 ft 124 kts 244°
2026-05-04 12:18 43.44260 39.93419 229 ft 204 kts 248°
2026-05-04 12:19 43.43728 39.91530 1486 ft 214 kts 253°
2026-05-04 12:19 43.43417 39.89444 2607 ft 232 kts 261°
2026-05-04 12:19 43.43107 39.87210 3309 ft 246 kts 258°
2026-05-04 12:19 43.42680 39.84809 3946 ft 264 kts 253°
2026-05-04 12:20 43.42207 39.82359 4960 ft 267 kts 254°
2026-05-04 12:20 43.41772 39.79845 5920 ft 273 kts 253°
2026-05-04 12:20 43.41323 39.77294 6956 ft 277 kts 253°
2026-05-04 12:20 43.40882 39.74718 8089 ft 276 kts 252°
2026-05-04 12:21 43.40465 39.72115 8996 ft 282 kts 252°
2026-05-04 12:21 43.40003 39.69496 10071 ft 281 kts 251°
2026-05-04 12:21 43.39794 39.66780 10712 ft 302 kts 272°
2026-05-04 12:21 43.40551 39.63887 10945 ft 345 kts 298°
2026-05-04 12:22 43.42165 39.61264 11465 ft 372 kts 315°
2026-05-04 12:22 43.44320 39.59251 12327 ft 389 kts 334°
2026-05-04 12:22 43.46863 39.57859 13284 ft 396 kts 340°
2026-05-04 12:22 43.49469 39.56559 14283 ft 400 kts 340°
2026-05-04 12:23 43.52080 39.55226 15295 ft 401 kts 340°
2026-05-04 12:23 43.54692 39.53842 16277 ft 404 kts 339°
2026-05-04 12:23 43.57315 39.52413 17167 ft 408 kts 339°
2026-05-04 12:23 43.59970 39.50954 18031 ft 413 kts 340°
2026-05-04 12:24 43.62691 39.49844 18565 ft 411 kts 356°
2026-05-04 12:24 43.65534 39.50052 19179 ft 410 kts 17°
2026-05-04 12:24 43.68212 39.51288 19831 ft 402 kts 26°
2026-05-04 12:24 43.70596 39.53271 20319 ft 402 kts 47°
2026-05-04 12:25 43.71833 39.55224 20832 ft 397 kts 59°
2026-05-04 12:25 43.73406 39.59689 21862 ft 388 kts 77°
2026-05-04 12:25 43.73818 39.62148 22265 ft 389 kts 81°
2026-05-04 12:25 43.74337 39.65866 22827 ft 397 kts 82°
2026-05-04 12:26 43.74850 39.69630 23538 ft 400 kts 82°
2026-05-04 12:26 43.75381 39.73407 24188 ft 402 kts 81°
2026-05-04 12:26 43.75937 39.77208 24820 ft 404 kts 81°
2026-05-04 12:26 43.76509 39.81028 25413 ft 408 kts 81°
2026-05-04 12:27 43.77088 39.84892 26002 ft 412 kts 81°
2026-05-04 12:27 43.77469 39.88784 26427 ft 409 kts 93°
2026-05-04 12:27 43.77013 39.92676 26897 ft 413 kts 108°
2026-05-04 12:27 43.75865 39.96326 27460 ft 416 kts 121°
2026-05-04 12:28 43.74237 39.99644 28026 ft 419 kts 124°
2026-05-04 12:28 43.72574 40.02967 28526 ft 421 kts 123°
2026-05-04 12:28 43.71104 40.06374 28690 ft 422 kts 112°
2026-05-04 12:28 43.70405 40.10327 28981 ft 431 kts 96°
2026-05-04 12:29 43.70399 40.14464 29435 ft 432 kts 86°
2026-05-04 12:29 43.71058 40.18579 29674 ft 445 kts 72°
2026-05-04 12:29 43.72266 40.22510 29950 ft 444 kts 68°
2026-05-04 12:29 43.73584 40.26424 30195 ft 452 kts 68°
2026-05-04 12:30 43.74911 40.30356 30575 ft 453 kts 68°
2026-05-04 12:30 43.76276 40.34285 30949 ft 455 kts 67°
2026-05-04 12:30 43.77622 40.38266 31287 ft 458 kts 68°
2026-05-04 12:30 43.78934 40.42291 31548 ft 458 kts 69°
2026-05-04 12:31 43.80236 40.46360 31762 ft 465 kts 69°
2026-05-04 12:31 43.81548 40.50472 31943 ft 470 kts 69°
2026-05-04 12:31 43.82889 40.54605 32229 ft 472 kts 68°
2026-05-04 12:31 43.84256 40.58768 32601 ft 474 kts 69°
2026-05-04 12:32 43.85606 40.62929 33102 ft 474 kts 68°
2026-05-04 12:32 43.87830 40.71394 33964 ft 465 kts 81°
2026-05-04 12:32 43.88341 40.75824 34206 ft 464 kts 85°
2026-05-04 12:33 43.88567 40.80288 34426 ft 465 kts 89°
2026-05-04 12:33 43.88736 40.84771 34667 ft 468 kts 88°
2026-05-04 12:33 43.88961 40.89288 34800 ft 473 kts 89°
2026-05-04 12:33 43.89157 40.93830 35354 ft 469 kts 90°
2026-05-04 12:34 43.89292 40.98330 35689 ft 469 kts 90°
2026-05-04 12:34 43.89466 41.02846 35894 ft 470 kts 89°
2026-05-04 12:34 43.89668 41.07395 36118 ft 473 kts 89°
2026-05-04 12:34 43.89876 41.11944 36492 ft 473 kts 89°
2026-05-04 12:35 43.90082 41.16488 36889 ft 472 kts 89°
2026-05-04 12:35 43.90278 41.20968 37260 ft 471 kts 89°
2026-05-04 12:35 43.90471 41.25561 37589 ft 472 kts 89°
2026-05-04 12:35 43.90658 41.30102 37874 ft 471 kts 89°
2026-05-04 12:36 43.90840 41.34586 38099 ft 473 kts 89°
2026-05-04 12:36 43.91029 41.39134 38385 ft 472 kts 89°
2026-05-04 12:36 43.91208 41.43702 38514 ft 477 kts 89°
2026-05-04 12:36 43.91384 41.48303 38700 ft 478 kts 89°
2026-05-04 12:37 43.91562 41.52897 38929 ft 478 kts 89°
2026-05-04 12:37 43.91742 41.57516 39146 ft 479 kts 90°
2026-05-04 12:37 43.91911 41.62133 39353 ft 480 kts 90°
2026-05-04 12:37 43.92072 41.66755 39553 ft 481 kts 90°
2026-05-04 12:38 43.92230 41.71396 39745 ft 482 kts 90°
2026-05-04 12:38 43.92386 41.76039 39939 ft 483 kts 90°
2026-05-04 12:38 43.92542 41.80696 40130 ft 484 kts 90°
2026-05-04 12:38 43.92696 41.85354 40306 ft 484 kts 90°
2026-05-04 12:39 43.92850 41.90036 40419 ft 487 kts 90°
2026-05-04 12:39 43.93156 41.99464 40697 ft 490 kts 90°
2026-05-04 12:40 43.93456 42.08951 40830 ft 495 kts 90°
2026-05-04 12:40 43.93749 42.18498 40832 ft 493 kts 90°
2026-05-04 12:41 43.94033 42.27931 40847 ft 487 kts 91°
2026-05-04 12:41 43.94306 42.37316 40842 ft 486 kts 91°
2026-05-04 12:42 43.94570 42.46657 40832 ft 486 kts 91°
2026-05-04 12:42 43.94825 42.56047 40872 ft 487 kts 92°
2026-05-04 12:43 43.94319 42.65354 40883 ft 483 kts 103°
2026-05-04 12:43 43.92684 42.74362 40895 ft 482 kts 109°
2026-05-04 12:44 43.90805 42.83294 40885 ft 483 kts 109°
2026-05-04 12:44 43.88936 42.92257 40895 ft 484 kts 109°
2026-05-04 12:45 43.87085 43.01240 40908 ft 485 kts 109°
2026-05-04 12:45 43.85231 43.10244 40919 ft 486 kts 109°
2026-05-04 12:46 43.83371 43.19237 40917 ft 486 kts 109°
2026-05-04 12:46 43.81502 43.28225 40900 ft 486 kts 109°
2026-05-04 12:47 43.79625 43.37209 40911 ft 485 kts 109°
2026-05-04 12:47 43.77743 43.46177 40914 ft 485 kts 109°
2026-05-04 12:48 43.75854 43.55141 40913 ft 485 kts 109°
2026-05-04 12:48 43.73959 43.64091 40900 ft 485 kts 109°
2026-05-04 12:49 43.72059 43.73032 40908 ft 485 kts 109°
2026-05-04 12:49 43.70160 43.81925 40909 ft 486 kts 110°
2026-05-04 12:50 43.68240 43.90883 40911 ft 486 kts 110°
2026-05-04 12:50 43.66311 43.99841 40911 ft 487 kts 110°
2026-05-04 12:51 43.64376 44.08799 40908 ft 487 kts 110°
2026-05-04 12:51 43.62436 44.17757 40912 ft 487 kts 110°
2026-05-04 12:52 43.60507 44.26711 40906 ft 487 kts 110°
2026-05-04 12:52 43.58576 44.35659 40908 ft 487 kts 110°
2026-05-04 12:53 43.56636 44.44607 40912 ft 487 kts 110°
2026-05-04 12:53 43.54684 44.53559 40914 ft 488 kts 110°
2026-05-04 12:54 43.52724 44.62510 40912 ft 488 kts 110°
2026-05-04 12:54 43.50755 44.71468 40904 ft 489 kts 110°
2026-05-04 12:55 43.48776 44.80434 40913 ft 490 kts 110°
2026-05-04 12:55 43.46785 44.89414 40910 ft 490 kts 110°
2026-05-04 12:56 43.44787 44.98389 40909 ft 491 kts 110°
2026-05-04 12:56 43.42782 45.07360 40902 ft 491 kts 111°
2026-05-04 12:57 43.40767 45.16339 40907 ft 491 kts 111°
2026-05-04 12:57 43.38743 45.25319 40911 ft 492 kts 111°
2026-05-04 12:58 43.36724 45.34243 40912 ft 492 kts 111°
2026-05-04 12:58 43.34670 45.43286 40908 ft 493 kts 111°
2026-05-04 12:59 43.32619 45.52278 40913 ft 493 kts 111°
2026-05-04 12:59 43.30563 45.61198 40909 ft 494 kts 111°
2026-05-04 13:00 43.28473 45.70192 40906 ft 494 kts 111°
2026-05-04 13:00 43.26382 45.79171 40905 ft 494 kts 111°
2026-05-04 13:01 43.24281 45.88160 40908 ft 495 kts 111°
2026-05-04 13:01 43.22174 45.97144 40917 ft 495 kts 111°
2026-05-04 13:02 43.20061 46.06124 40873 ft 495 kts 112°
2026-05-04 13:02 43.17952 46.15107 40893 ft 496 kts 111°
2026-05-04 13:03 43.15857 46.24117 40899 ft 497 kts 111°
2026-05-04 13:03 43.13755 46.33131 40879 ft 498 kts 111°
2026-05-04 13:04 43.11637 46.42157 40857 ft 498 kts 111°
2026-05-04 13:04 43.09511 46.51174 40869 ft 498 kts 112°
2026-05-04 13:05 43.07378 46.60187 40872 ft 498 kts 112°
2026-05-04 13:05 43.05236 46.69202 40860 ft 499 kts 112°
2026-05-04 13:06 43.03086 46.78219 40858 ft 498 kts 112°
2026-05-04 13:06 43.00935 46.87205 40865 ft 498 kts 112°
2026-05-04 13:07 42.98774 46.96201 40871 ft 498 kts 112°
2026-05-04 13:07 42.96613 47.05178 40873 ft 498 kts 112°
2026-05-04 13:08 42.94461 47.14090 40871 ft 497 kts 112°
2026-05-04 13:08 42.92291 47.23035 40875 ft 496 kts 112°
2026-05-04 13:09 42.90115 47.31972 40876 ft 497 kts 112°
2026-05-04 13:09 42.87927 47.40922 40887 ft 497 kts 112°
2026-05-04 13:10 42.85733 47.49862 40884 ft 497 kts 112°
2026-05-04 13:10 42.83535 47.58793 40890 ft 498 kts 112°
2026-05-04 13:11 42.81140 47.67615 40889 ft 494 kts 118°
2026-05-04 13:11 42.78178 47.76045 40876 ft 493 kts 120°
2026-05-04 13:12 42.75200 47.84381 40881 ft 493 kts 119°
2026-05-04 13:12 42.72226 47.92792 40881 ft 494 kts 119°
2026-05-04 13:13 42.69262 48.01212 40889 ft 494 kts 119°
2026-05-04 13:13 42.66294 48.09626 40887 ft 494 kts 119°
2026-05-04 13:14 42.63799 48.16674 40885 ft 494 kts 119°
2026-05-04 13:14 42.60834 48.25022 40887 ft 494 kts 119°
2026-05-04 13:15 42.57842 48.33424 40889 ft 494 kts 119°
2026-05-04 13:15 42.54842 48.41823 40889 ft 495 kts 120°
2026-05-04 13:16 42.51839 48.50209 40901 ft 495 kts 120°
2026-05-04 13:16 42.48824 48.58597 40894 ft 495 kts 120°
2026-05-04 13:17 42.45791 48.66968 40874 ft 495 kts 120°
2026-05-04 13:17 42.42744 48.75341 40890 ft 496 kts 120°
2026-05-04 13:18 42.39693 48.83712 40893 ft 496 kts 120°
2026-05-04 13:18 42.36631 48.92092 40891 ft 497 kts 120°
2026-05-04 13:19 42.33560 49.00471 40887 ft 498 kts 120°
2026-05-04 13:19 42.30482 49.08848 40895 ft 497 kts 120°
2026-05-04 13:20 42.27399 49.17212 40884 ft 497 kts 120°
2026-05-04 13:20 42.24314 49.25561 40873 ft 497 kts 120°
2026-05-04 13:21 42.21204 49.33880 40884 ft 496 kts 121°
2026-05-04 13:21 42.18046 49.42153 40885 ft 496 kts 121°
2026-05-04 13:22 42.14881 49.50415 40861 ft 496 kts 121°
2026-05-04 13:22 42.11717 49.58672 40886 ft 496 kts 121°
2026-05-04 13:23 42.08543 49.66939 40888 ft 497 kts 121°
2026-05-04 13:23 42.05355 49.75215 40877 ft 498 kts 121°
2026-05-04 13:24 42.02162 49.83488 40871 ft 499 kts 121°
2026-05-04 13:24 41.98952 49.91787 40876 ft 500 kts 121°
2026-05-04 13:25 41.94119 50.04234 40871 ft 501 kts 121°
2026-05-04 13:25 41.90905 50.12480 40862 ft 502 kts 122°
2026-05-04 13:26 41.87660 50.20785 40868 ft 503 kts 122°
2026-05-04 13:26 41.84402 50.29099 40869 ft 504 kts 122°
2026-05-04 13:27 41.81133 50.37416 40865 ft 504 kts 122°
2026-05-04 13:27 41.77859 50.45725 40867 ft 504 kts 122°
2026-05-04 13:28 41.74575 50.54032 40866 ft 504 kts 122°
2026-05-04 13:28 41.71287 50.62328 40852 ft 504 kts 122°
2026-05-04 13:29 41.67993 50.70616 40880 ft 504 kts 122°
2026-05-04 13:30 41.61525 50.86826 40860 ft 505 kts 122°
2026-05-04 13:30 41.58212 50.95085 40862 ft 504 kts 122°
2026-05-04 13:31 41.54887 51.03348 40869 ft 505 kts 122°
2026-05-04 13:31 41.51559 51.11600 40866 ft 505 kts 122°
2026-05-04 13:32 41.48228 51.19839 40855 ft 505 kts 123°
2026-05-04 13:32 41.44889 51.28076 40864 ft 505 kts 123°
2026-05-04 13:33 41.41562 51.36260 40864 ft 505 kts 123°
2026-05-04 13:33 41.38212 51.44482 40850 ft 506 kts 123°
2026-05-04 13:34 41.34852 51.52712 40860 ft 506 kts 123°
2026-05-04 13:35 41.26252 51.73863 40855 ft 507 kts 122°
2026-05-04 13:36 41.22890 51.82094 40860 ft 507 kts 123°
2026-05-04 13:36 41.19546 51.90253 40862 ft 508 kts 123°
2026-05-04 13:37 41.16184 51.98434 40850 ft 508 kts 123°
2026-05-04 13:37 41.12793 52.06665 40863 ft 508 kts 123°
2026-05-04 13:38 41.09394 52.14892 40866 ft 509 kts 123°
2026-05-04 13:38 41.05987 52.23116 40858 ft 509 kts 123°
2026-05-04 13:39 41.02571 52.31339 40869 ft 509 kts 123°
2026-05-04 13:39 40.99148 52.39555 40870 ft 510 kts 123°
2026-05-04 13:40 40.95719 52.47766 40846 ft 510 kts 123°
2026-05-04 13:40 40.92282 52.55976 40862 ft 510 kts 123°
2026-05-04 13:41 40.88836 52.64174 40861 ft 510 kts 123°
2026-05-04 13:41 40.85369 52.72369 40839 ft 511 kts 123°
2026-05-04 13:42 40.80164 52.84631 40858 ft 511 kts 123°
2026-05-04 13:42 40.76681 52.92814 40859 ft 511 kts 123°
2026-05-04 13:43 40.73195 53.00986 40857 ft 512 kts 123°
2026-05-04 13:43 40.69700 53.09155 40850 ft 512 kts 123°
2026-05-04 13:44 40.66219 53.17271 40850 ft 512 kts 123°
2026-05-04 13:44 40.62710 53.25428 40833 ft 512 kts 123°
2026-05-04 13:45 40.59768 53.32250 40847 ft 512 kts 123°
2026-05-04 13:46 40.57117 53.38386 40843 ft 512 kts 123°
2026-05-04 13:46 40.53593 53.46522 40846 ft 512 kts 123°
2026-05-04 13:47 40.50084 53.54603 40823 ft 512 kts 123°
2026-05-04 13:47 40.46547 53.62726 40831 ft 512 kts 123°
2026-05-04 13:48 40.43008 53.70832 40827 ft 512 kts 124°
2026-05-04 13:48 40.39460 53.78937 40814 ft 512 kts 124°
2026-05-04 13:49 40.35907 53.87033 40822 ft 512 kts 124°
2026-05-04 13:49 40.32345 53.95126 40808 ft 513 kts 124°
2026-05-04 13:50 40.28775 54.03218 40804 ft 513 kts 124°
2026-05-04 13:50 40.25196 54.11307 40813 ft 514 kts 124°
2026-05-04 13:51 40.21604 54.19404 40809 ft 515 kts 124°
2026-05-04 13:51 40.18000 54.27508 40799 ft 516 kts 124°
2026-05-04 13:52 40.12573 54.39671 40811 ft 517 kts 124°
2026-05-04 13:53 40.08943 54.47782 40789 ft 518 kts 124°
2026-05-04 13:53 40.05328 54.55836 40813 ft 518 kts 124°
2026-05-04 13:54 39.99848 54.68006 40810 ft 518 kts 124°
2026-05-04 13:55 39.94375 54.80158 40814 ft 518 kts 124°
2026-05-04 13:55 39.89465 54.90958 40808 ft 518 kts 124°
2026-05-04 13:56 39.85790 54.99023 40800 ft 518 kts 124°
2026-05-04 13:57 39.80326 55.11142 40807 ft 518 kts 123°
2026-05-04 13:58 39.73201 55.27358 40800 ft 518 kts 123°
2026-05-04 13:58 39.67778 55.39522 40802 ft 519 kts 124°
2026-05-04 13:59 39.64073 55.47557 40800 ft 519 kts 124°
2026-05-04 14:00 39.58492 55.59606 40798 ft 520 kts 124°
2026-05-04 14:00 39.52920 55.71653 40814 ft 519 kts 124°
2026-05-04 14:01 39.49198 55.79673 40811 ft 520 kts 124°
2026-05-04 14:02 39.43663 55.91761 40801 ft 520 kts 124°
2026-05-04 14:02 39.39995 55.99826 40810 ft 521 kts 124°
2026-05-04 14:03 39.36311 56.07889 40810 ft 521 kts 124°
2026-05-04 14:03 39.32642 56.15882 40791 ft 521 kts 124°
2026-05-04 14:04 39.27086 56.27945 40815 ft 521 kts 124°
2026-05-04 14:04 39.23373 56.35982 40820 ft 521 kts 124°
2026-05-04 14:05 39.17793 56.48022 40805 ft 521 kts 124°
2026-05-04 14:06 39.14066 56.56039 40817 ft 522 kts 124°
2026-05-04 14:06 39.10341 56.64033 40714 ft 515 kts 124°
2026-05-04 14:06 39.08503 56.67974 40126 ft 513 kts 124°
2026-05-04 14:07 39.06655 56.71927 39321 ft 517 kts 124°
2026-05-04 14:07 39.04791 56.75902 38513 ft 521 kts 124°
2026-05-04 14:07 39.02915 56.79897 37563 ft 523 kts 124°
2026-05-04 14:07 39.01027 56.83915 36578 ft 526 kts 124°
2026-05-04 14:08 38.99127 56.87955 35610 ft 529 kts 124°
2026-05-04 14:08 38.97217 56.92010 34605 ft 533 kts 124°
2026-05-04 14:08 38.95292 56.96095 33587 ft 536 kts 124°
2026-05-04 14:08 38.93356 57.00202 32503 ft 538 kts 123°
2026-05-04 14:09 38.89516 57.08333 30757 ft 531 kts 123°
2026-05-04 14:09 38.87615 57.12352 30175 ft 522 kts 123°
2026-05-04 14:10 38.84024 57.19945 27642 ft 479 kts 123°
2026-05-04 14:10 38.82312 57.23552 26036 ft 467 kts 123°
2026-05-04 14:10 38.80637 57.27073 24446 ft 458 kts 123°
2026-05-04 14:10 38.78991 57.30525 22812 ft 449 kts 123°
2026-05-04 14:11 38.77375 57.33912 21073 ft 440 kts 123°
2026-05-04 14:11 38.74258 57.40436 18051 ft 419 kts 123°
2026-05-04 14:11 38.72748 57.43592 16446 ft 413 kts 123°
2026-05-04 14:12 38.71224 57.46769 15526 ft 420 kts 123°
2026-05-04 14:12 38.69702 57.49946 14920 ft 417 kts 123°
2026-05-04 14:12 38.66699 57.56209 13771 ft 409 kts 122°
2026-05-04 14:13 38.65213 57.59306 13140 ft 406 kts 123°
2026-05-04 14:13 38.63738 57.62375 12515 ft 403 kts 123°
2026-05-04 14:13 38.62272 57.65403 11936 ft 396 kts 124°
2026-05-04 14:13 38.60550 57.68004 11447 ft 375 kts 141°
2026-05-04 14:14 38.58533 57.70058 10954 ft 368 kts 144°
2026-05-04 14:14 38.54612 57.73986 10518 ft 346 kts 144°
2026-05-04 14:14 38.52765 57.75872 10372 ft 334 kts 144°
2026-05-04 14:15 38.49271 57.79477 10105 ft 312 kts 143°
2026-05-04 14:15 38.45972 57.82895 9610 ft 302 kts 143°
2026-05-04 14:16 38.42731 57.86247 8970 ft 297 kts 143°
2026-05-04 14:16 38.41128 57.87905 8655 ft 296 kts 143°
2026-05-04 14:17 38.37983 57.91163 8042 ft 291 kts 143°
2026-05-04 14:17 38.36416 57.92784 7731 ft 289 kts 143°
2026-05-04 14:17 38.33319 57.95985 7124 ft 285 kts 143°
2026-05-04 14:18 38.31786 57.97572 6835 ft 283 kts 142°
2026-05-04 14:18 38.28734 58.00722 6224 ft 282 kts 143°
2026-05-04 14:19 38.25708 58.03834 5634 ft 276 kts 142°
2026-05-04 14:19 38.24220 58.05363 5340 ft 273 kts 141°
2026-05-04 14:19 38.22760 58.06870 5114 ft 267 kts 141°
2026-05-04 14:19 38.21319 58.08352 4803 ft 265 kts 141°
2026-05-04 14:20 38.19923 58.09787 4510 ft 249 kts 141°
2026-05-04 14:20 38.18596 58.11150 4238 ft 244 kts 140°
2026-05-04 14:20 38.17254 58.12534 3987 ft 252 kts 140°
2026-05-04 14:21 38.14528 58.15339 3418 ft 250 kts 139°
2026-05-04 14:21 38.13178 58.16709 3147 ft 245 kts 141°
2026-05-04 14:21 38.11625 58.17555 2893 ft 247 kts 167°
2026-05-04 14:21 38.09953 58.17840 2795 ft 238 kts 167°
2026-05-04 14:22 38.08344 58.18167 2669 ft 230 kts 167°
2026-05-04 14:22 38.06805 58.18515 2599 ft 215 kts 160°
2026-05-04 14:22 38.05644 58.19434 2540 ft 183 kts 126°
2026-05-04 14:22 38.04953 58.20672 2493 ft 166 kts 122°
2026-05-04 14:23 38.03828 58.22759 2483 ft 125 kts 118°
2026-05-04 14:23 38.03396 58.23690 2334 ft 119 kts 118°
2026-05-04 14:23 38.02993 58.24587 2217 ft 118 kts 118°
2026-05-04 14:24 38.02584 58.25502 2054 ft 119 kts 117°
2026-05-04 14:24 38.02171 58.26425 1907 ft 118 kts 114°
2026-05-04 14:24 38.01783 58.27301 1754 ft 114 kts 115°
2026-05-04 14:24 38.01395 58.28177 1628 ft 113 kts 116°
2026-05-04 14:25 38.01016 58.29029 1473 ft 112 kts 116°
2026-05-04 14:25 38.00188 58.30869 886 ft 107 kts 117°
2026-05-04 14:25 37.99790 58.31772 1052 ft 124 kts 114°
2026-05-04 14:26 37.99378 58.32734 930 ft 122 kts 116°
2026-05-04 14:26 37.98973 58.33666 725 ft 119 kts 119°
2026-05-04 14:26 37.98585 58.34538 680 ft 101 kts 118°
2026-05-04 14:26 37.98319 58.35110 678 ft 49 kts 121°
2026-05-04 14:27 37.98227 58.35310 678 ft 18 kts 119°
2026-05-04 14:27 37.98151 58.35479 676 ft 23 kts 120°
2026-05-04 14:27 37.98073 58.35653 680 ft 23 kts 120°
2026-05-04 14:27 37.97995 58.35827 677 ft 23 kts 120°
2026-05-04 14:28 37.97928 58.36007 679 ft 23 kts 102°
2026-05-04 14:28 37.97913 58.36206 684 ft 23 kts 90°
2026-05-04 14:28 37.97912 58.36406 682 ft 23 kts 90°
2026-05-04 14:28 37.97888 58.36602 680 ft 23 kts 114°
2026-05-04 14:29 37.97863 58.36916 680 ft 19 kts 31°
2026-05-04 14:29 37.98050 58.37053 681 ft 10 kts 31°
2026-05-04 14:30 37.98089 58.37081 682 ft 0 kts 29°
2026-05-04 14:30 37.98414 58.36922 682 ft 0 kts 210°